Location: Newark
(49.8969°N, 3.3422°E)
Time: 20:34:10
(UTC+00:00)

Transit 4A - Visible Passes

Search period start: 18 January 2020 00:00
Search period end: 28 January 2020 00:00
Orbit: 871 x 973 km, 66.8° (Epoch: 18 January)

Date Brightness Start Highest point End Pass type
(mag) Time Alt. Az. Time Alt. Az. Time Alt. Az.
18 Jan 10.7 06:49:00 10° SSE 06:53:30 22° ESE 06:57:55 10° ENE visible
18 Jan 9.9 17:32:16 10° NW 17:37:14 30° WSW 17:42:12 10° S visible
19 Jan 10.1 06:57:22 10° S 07:02:35 31° ESE 07:07:42 10° NE visible
19 Jan 10.6 17:42:07 10° WNW 17:46:18 21° WSW 17:50:30 10° SSW visible
20 Jan 11.1 17:52:26 10° WNW 17:55:17 14° WSW 17:58:10 10° SW visible
21 Jan 11.3 05:33:55 10° ESE 05:35:45 11° E 05:37:34 10° E visible
22 Jan 10.8 05:40:56 10° SE 05:44:43 17° ESE 05:48:27 10° ENE visible
23 Jan 10.2 05:48:59 10° SSE 05:53:45 25° ESE 05:58:28 10° NE visible
24 Jan 9.6 05:57:28 10° S 06:02:52 35° ESE 06:08:10 10° NE visible
25 Jan 8.9 06:06:16 10° S 06:12:03 50° ESE 06:17:43 10° NE visible
26 Jan 10.8 04:33:14 10° SE 04:35:57 13° ESE 04:38:40 10° ENE visible
26 Jan 8.2 06:15:19 10° SSW 06:21:17 70° ESE 06:27:09 10° NE visible
27 Jan 10.3 04:40:46 10° SSE 04:44:57 20° ESE 04:49:05 10° ENE visible
27 Jan 7.8 06:24:34 10° SW 06:30:36 87° NW 06:36:32 10° NE visible
